This is the latest recevied weather packets stored in our database for station/object KJ7HSW. If no packets are shown the sender has not sent any weather packets the latest 10 day(s).
| Time | Temp. | Humidity | Pressure | Rain* | Wind** | Luminosity | Snow |
|---|---|---|---|---|---|---|---|
| 1788450874 | 13.89° C | 72% | 1009.8 hPa | 0 mm | - | 146 W/m² | - |
| 1788450570 | 13.89° C | 72% | 1009.6 hPa | 0 mm | - | 396 W/m² | - |
| 1788450266 | 13.89° C | 72% | 1009.5 hPa | 0 mm | - | 243 W/m² | - |
| 1788449961 | 14.44° C | 71% | 1009.4 hPa | 0 mm | - | 328 W/m² | - |
| 1788449656 | 14.44° C | 71% | 1009.4 hPa | 0 mm | - | 159 W/m² | - |
| 1788449353 | 13.89° C | 73% | 1009.4 hPa | 0 mm | - | 255 W/m² | - |
| 1788449049 | 13.89° C | 73% | 1009.3 hPa | 0 mm | - | 124 W/m² | - |
| 1788448749 | 13.33° C | 73% | 1009.5 hPa | 0 mm | - | 203 W/m² | - |
| 1788448443 | 12.22° C | 79% | 1009.5 hPa | 0 mm | - | 175 W/m² | - |
| 1788448138 | 11.11° C | 84% | 1009.6 hPa | 0 mm | - | 93 W/m² | - |
| 1788447833 | 10.56° C | 86% | 1009.5 hPa | 0 mm | - | 85 W/m² | - |
| 1788447528 | 10.56° C | 87% | 1009.6 hPa | 0 mm | - | 66 W/m² | - |
| 1788447223 | 10° C | 89% | 1009.4 hPa | 0 mm | - | 70 W/m² | - |
| 1788446922 | 10° C | 91% | 1009.4 hPa | 0 mm | - | 44 W/m² | - |
| 1788446618 | 9.44° C | 92% | 1009.4 hPa | 0 mm | - | 42 W/m² | - |
| 1788446313 | 9.44° C | 93% | 1009.4 hPa | 0 mm | - | 44 W/m² | - |
| 1788446010 | 8.89° C | 94% | 1009.5 hPa | 0 mm | - | 44 W/m² | - |
| 1788445705 | 8.89° C | 95% | 1009.4 hPa | 0 mm | - | 39 W/m² | - |
| 1788445401 | 8.89° C | 96% | 1009.3 hPa | 0 mm | - | 34 W/m² | - |
| 1788445097 | 8.89° C | 96% | 1009.4 hPa | 0 mm | - | 31 W/m² | - |
| 1788444793 | 8.33° C | 96% | 1009.3 hPa | 0 mm | - | 28 W/m² | - |
| 1788444492 | 8.33° C | 96% | 1009.3 hPa | 0 mm | - | 24 W/m² | - |
| 1788444187 | 8.33° C | 96% | 1009.2 hPa | 0 mm | - | 18 W/m² | - |
| 1788443883 | 8.33° C | 96% | 1009.3 hPa | 0 mm | - | 15 W/m² | - |
| 1788443578 | 8.33° C | 96% | 1009.2 hPa | 0 mm | - | 10 W/m² | - |
* Rain latest hour (hover to see other rain measurements)
** Current wind speed in m/s (hover to see current wind gust speed)